contact:dominique.lefevre@mio.osupytheas.fr, maurice.libes@osupytheas.fr, didier.mallarino@osupytheas.fr
Project:EMSO http://www.emso-fr.org/EMSO-France
Depth: 2436.0 m
Title:EMSO Ligure Ouest : Data MII capteur AQUADOPP
Date,Latitude,Longitude,X_East,Y_North,Z_Up,Amplitude_X,Amplitude_Y,Amplitude_Z,Batterie,SoundSpeed,Heading,Pitch,Roll,Pressure,TIS,Speed,Direction
, degrees North, degrees East, m.s-1, m.s-1,m.s-1, 1, 1, 1, Volt, m.s-1, degree, degree, degree, dbar, degree_C, m.s-1, degree
2020-04-22T00:04:03,42.805,6.029,-0.014,0.035,-0.015,102.0,113.0,102.0,13.4,1505.3,323.8,-0.7,1.8,2470.258,13.32,0.037,338.2
2020-04-22T00:07:03,42.805,6.029,-0.007,0.015,-0.045,104.0,112.0,101.0,13.3,1505.3,325.6,-0.8,1.8,2470.266,13.32,0.016,335.0
2020-04-22T00:10:03,42.805,6.029,-0.017,0.037,-0.004,104.0,111.0,101.0,13.3,1505.3,327.6,-0.7,1.8,2470.271,13.33,0.04,335.3
2020-04-22T00:13:03,42.805,6.029,0.012,0.029,-0.015,103.0,112.0,102.0,13.4,1505.3,326.4,-0.7,1.8,2470.239,13.33,0.031,22.5
2020-04-22T00:16:03,42.805,6.029,-0.033,0.024,-0.031,103.0,111.0,102.0,13.4,1505.3,326.3,-0.7,1.8,2470.201,13.33,0.04,306.0
2020-04-22T00:19:03,42.805,6.029,0.004,0.018,-0.047,103.0,111.0,101.0,13.4,1505.3,327.9,-0.7,1.8,2470.241,13.33,0.018,12.5
2020-04-22T00:22:03,42.805,6.029,-0.006,0.023,-0.022,105.0,113.0,102.0,13.4,1505.3,324.0,-0.7,1.8,2470.246,13.33,0.023,345.4
2020-04-22T00:25:03,42.805,6.029,0.013,0.026,-0.017,104.0,112.0,101.0,13.4,1505.3,326.4,-0.7,1.8,2470.243,13.33,0.029,26.6
2020-04-22T00:28:03,42.805,6.029,0.01,0.027,-0.017,103.0,113.0,100.0,13.4,1505.3,324.2,-0.7,1.9,2470.245,13.33,0.028,20.3
2020-04-22T00:31:03,42.805,6.029,0.005,0.025,-0.036,105.0,112.0,101.0,13.3,1505.3,326.5,-0.7,1.9,2470.198,13.33,0.025,11.3
2020-04-22T00:34:03,42.805,6.029,0.004,-0.009,-0.058,102.0,112.0,102.0,13.3,1505.4,327.1,-0.7,1.8,2470.233,13.34,0.009,156.0
2020-04-22T00:37:03,42.805,6.029,-0.005,0.033,-0.016,103.0,113.0,102.0,13.4,1505.4,326.1,-0.7,1.8,2470.229,13.34,0.033,351.4
2020-04-22T00:40:03,42.805,6.029,-0.018,0.036,-0.076,104.0,113.0,101.0,13.4,1505.4,327.0,-0.7,1.8,2470.242,13.34,0.04,333.4
2020-04-22T00:43:03,42.805,6.029,0.017,0.006,-0.008,105.0,112.0,102.0,13.3,1505.4,323.2,-0.7,1.8,2470.259,13.34,0.018,70.6
2020-04-22T00:46:03,42.805,6.029,0.005,0.04,-0.037,105.0,114.0,100.0,13.4,1505.4,326.6,-0.7,1.8,2470.21,13.34,0.04,7.1
2020-04-22T00:49:03,42.805,6.029,0.0,0.026,-0.027,104.0,112.0,101.0,13.4,1505.4,326.6,-0.7,1.8,2470.267,13.34,0.026,0.0
2020-04-22T00:52:03,42.805,6.029,0.002,0.025,-0.028,103.0,116.0,100.0,13.4,1505.4,325.9,-0.7,1.8,2470.23,13.34,0.025,4.6
2020-04-22T00:55:03,42.805,6.029,0.0,0.036,-0.036,104.0,113.0,101.0,13.4,1505.4,325.7,-0.7,1.8,2470.218,13.34,0.036,0.0
2020-04-22T00:58:03,42.805,6.029,0.016,0.03,-0.033,105.0,113.0,101.0,13.3,1505.4,325.7,-0.7,1.8,2470.201,13.34,0.034,28.1
2020-04-22T01:04:03,42.805,6.029,-0.021,0.021,-0.018,107.0,114.0,104.0,13.4,1505.3,327.7,-0.7,1.8,2470.244,13.32,0.029,315.0
2020-04-22T01:07:03,42.805,6.029,-0.005,0.014,-0.042,106.0,112.0,101.0,13.4,1505.3,322.8,-0.8,1.8,2470.241,13.32,0.014,340.4
2020-04-22T01:10:03,42.805,6.029,0.008,0.023,-0.047,105.0,112.0,102.0,13.4,1505.3,326.6,-0.7,1.9,2470.242,13.33,0.024,19.2
2020-04-22T01:13:03,42.805,6.029,0.016,0.018,-0.037,105.0,111.0,100.0,13.4,1505.3,325.0,-0.7,1.8,2470.285,13.33,0.024,41.6
2020-04-22T01:16:03,42.805,6.029,0.001,0.041,-0.048,104.0,117.0,100.0,13.4,1505.3,324.5,-0.7,1.8,2470.217,13.33,0.041,1.4
2020-04-22T01:19:03,42.805,6.029,0.015,0.044,-0.015,104.0,111.0,100.0,13.4,1505.3,327.1,-0.7,1.8,2470.235,13.33,0.046,18.8
2020-04-22T01:22:03,42.805,6.029,-0.011,0.027,-0.04,104.0,112.0,101.0,13.3,1505.3,327.7,-0.7,1.8,2470.22,13.33,0.029,337.8
2020-04-22T01:25:03,42.805,6.029,-0.001,0.046,-0.038,103.0,113.0,102.0,13.4,1505.4,327.4,-0.7,1.8,2470.2,13.34,0.046,358.8
2020-04-22T01:28:03,42.805,6.029,-0.015,0.017,-0.06,104.0,113.0,102.0,13.4,1505.4,328.4,-0.7,1.8,2470.221,13.34,0.022,318.6
2020-04-22T01:31:03,42.805,6.029,0.024,0.025,-0.009,106.0,112.0,100.0,13.4,1505.4,324.1,-0.7,1.8,2470.215,13.34,0.034,43.8
2020-04-22T01:34:03,42.805,6.029,0.004,0.032,-0.047,105.0,112.0,101.0,13.4,1505.4,327.0,-0.7,1.9,2470.283,13.34,0.032,7.1
2020-04-22T01:37:03,42.805,6.029,0.032,0.03,-0.001,103.0,114.0,100.0,13.4,1505.4,327.6,-0.7,1.8,2470.285,13.34,0.043,46.9
2020-04-22T01:40:03,42.805,6.029,0.024,0.037,-0.013,103.0,112.0,102.0,13.4,1505.4,324.7,-0.7,1.8,2470.202,13.34,0.044,33.0
2020-04-22T01:43:03,42.805,6.029,0.003,0.033,-0.007,104.0,112.0,102.0,13.4,1505.4,323.5,-0.7,1.8,2470.215,13.34,0.033,5.2
2020-04-22T01:46:03,42.805,6.029,-0.002,0.022,-0.046,102.0,114.0,99.0,13.3,1505.4,326.4,-0.7,1.8,2470.27,13.34,0.022,354.8
2020-04-22T01:49:03,42.805,6.029,0.01,0.034,-0.004,104.0,112.0,100.0,13.4,1505.4,327.4,-0.7,1.9,2470.242,13.34,0.035,16.4
2020-04-22T01:52:03,42.805,6.029,0.0,0.018,-0.044,102.0,113.0,101.0,13.4,1505.3,327.3,-0.7,1.8,2470.277,13.33,0.018,0.0
2020-04-22T01:55:03,42.805,6.029,0.024,0.009,-0.027,103.0,113.0,100.0,13.4,1505.4,324.7,-0.7,1.9,2470.177,13.34,0.025,69.4
2020-04-22T01:58:03,42.805,6.029,0.001,0.028,-0.039,103.0,113.0,101.0,13.4,1505.4,326.8,-0.7,1.8,2470.217,13.34,0.028,2.0
2020-04-22T02:04:03,42.805,6.029,0.029,0.042,0.002,102.0,112.0,101.0,13.4,1505.3,327.7,-0.8,1.8,2470.297,13.31,0.051,34.6
2020-04-22T02:07:03,42.805,6.029,0.022,0.042,-0.019,103.0,111.0,101.0,13.4,1505.3,326.3,-0.7,1.8,2470.266,13.32,0.047,27.6
2020-04-22T02:10:03,42.805,6.029,0.026,0.033,0.0,102.0,112.0,101.0,13.4,1505.3,325.1,-0.7,1.8,2470.227,13.33,0.042,38.2
2020-04-22T02:13:03,42.805,6.029,-0.007,0.026,-0.025,103.0,113.0,101.0,13.4,1505.3,325.2,-0.7,1.9,2470.272,13.33,0.026,344.9
2020-04-22T02:16:03,42.805,6.029,0.007,0.027,-0.035,103.0,114.0,101.0,13.4,1505.3,323.2,-0.7,1.9,2470.244,13.33,0.027,14.5
2020-04-22T02:19:03,42.805,6.029,0.004,0.014,-0.055,104.0,112.0,101.0,13.3,1505.3,324.5,-0.7,1.8,2470.274,13.33,0.014,15.9
2020-04-22T02:22:03,42.805,6.029,0.01,0.038,-0.035,105.0,120.0,100.0,13.4,1505.3,327.7,-0.7,1.8,2470.232,13.33,0.039,14.7
2020-04-22T02:25:03,42.805,6.029,0.019,0.014,-0.06,104.0,113.0,102.0,13.4,1505.3,325.0,-0.7,1.8,2470.261,13.33,0.023,53.6
2020-04-22T02:28:03,42.805,6.029,0.0,0.02,-0.033,103.0,113.0,102.0,13.4,1505.3,326.6,-0.7,1.8,2470.233,13.33,0.02,0.0
2020-04-22T02:31:03,42.805,6.029,0.01,0.03,0.0,104.0,118.0,100.0,13.4,1505.3,324.4,-0.7,1.8,2470.258,13.33,0.031,18.4
2020-04-22T02:34:03,42.805,6.029,0.002,0.033,-0.03,104.0,113.0,102.0,13.3,1505.3,324.8,-0.7,1.8,2470.249,13.33,0.033,3.5
2020-04-22T02:37:03,42.805,6.029,0.006,0.002,-0.046,106.0,113.0,101.0,13.4,1505.3,326.5,-0.7,1.8,2470.232,13.33,0.006,71.6
2020-04-22T02:40:03,42.805,6.029,0.013,0.03,0.003,103.0,114.0,101.0,13.4,1505.3,323.5,-0.7,1.8,2470.282,13.33,0.032,23.4
2020-04-22T02:43:03,42.805,6.029,0.011,0.015,-0.016,104.0,112.0,102.0,13.4,1505.3,326.6,-0.7,1.8,2470.239,13.33,0.018,36.3
2020-04-22T02:46:03,42.805,6.029,0.034,0.004,-0.036,103.0,112.0,101.0,13.3,1505.3,325.7,-0.7,1.8,2470.254,13.33,0.034,83.3
2020-04-22T02:49:03,42.805,6.029,0.006,0.016,0.003,104.0,112.0,103.0,13.4,1505.3,325.7,-0.7,1.9,2470.282,13.33,0.017,20.6
2020-04-22T02:52:03,42.805,6.029,0.014,0.01,0.036,103.0,112.0,101.0,13.4,1505.3,323.0,-0.7,1.8,2470.236,13.33,0.017,54.5
2020-04-22T02:55:03,42.805,6.029,0.015,0.032,0.002,104.0,114.0,101.0,13.4,1505.3,325.1,-0.7,1.9,2470.29,13.33,0.035,25.1
2020-04-22T02:58:03,42.805,6.029,0.004,0.027,-0.016,103.0,112.0,102.0,13.3,1505.3,325.5,-0.7,1.9,2470.249,13.33,0.027,8.4
2020-04-22T03:04:03,42.805,6.029,0.017,0.002,-0.011,103.0,112.0,101.0,13.4,1505.3,324.7,-0.8,1.8,2470.293,13.31,0.017,83.3
2020-04-22T03:07:03,42.805,6.029,0.005,0.004,-0.051,104.0,114.0,102.0,13.4,1505.3,325.4,-0.7,1.8,2470.334,13.31,0.006,51.3
2020-04-22T03:10:03,42.805,6.029,-0.001,0.01,-0.028,103.0,113.0,100.0,13.3,1505.3,328.0,-0.7,1.8,2470.317,13.32,0.01,354.3
2020-04-22T03:13:03,42.805,6.029,-0.001,0.018,-0.033,103.0,113.0,102.0,13.3,1505.3,327.3,-0.7,1.9,2470.258,13.32,0.018,356.8
2020-04-22T03:16:03,42.805,6.029,0.006,0.016,-0.033,104.0,114.0,101.0,13.3,1505.3,328.0,-0.7,1.8,2470.289,13.32,0.017,20.6
2020-04-22T03:19:03,42.805,6.029,-0.004,0.035,-0.02,103.0,113.0,101.0,13.4,1505.3,323.5,-0.7,1.8,2470.306,13.32,0.035,353.5
2020-04-22T03:22:03,42.805,6.029,0.015,0.021,-0.02,103.0,112.0,101.0,13.3,1505.3,325.6,-0.7,1.8,2470.349,13.33,0.025,35.5
2020-04-22T03:25:03,42.805,6.029,0.017,0.005,-0.016,103.0,112.0,102.0,13.4,1505.3,326.8,-0.7,1.8,2470.313,13.33,0.017,73.6
2020-04-22T03:28:03,42.805,6.029,0.0,0.022,-0.051,103.0,113.0,101.0,13.4,1505.3,328.4,-0.7,1.8,2470.279,13.33,0.022,0.0
2020-04-22T03:31:03,42.805,6.029,0.009,0.029,-0.041,103.0,113.0,101.0,13.4,1505.3,324.8,-0.7,1.8,2470.282,13.33,0.03,17.2
2020-04-22T03:34:03,42.805,6.029,0.018,0.032,-0.006,103.0,113.0,101.0,13.3,1505.3,326.5,-0.7,1.9,2470.269,13.33,0.036,29.4
2020-04-22T03:37:03,42.805,6.029,0.011,0.012,-0.036,102.0,112.0,100.0,13.4,1505.3,323.6,-0.7,1.8,2470.339,13.33,0.016,42.5
2020-04-22T03:40:03,42.805,6.029,-0.006,0.018,-0.005,102.0,111.0,100.0,13.4,1505.3,324.7,-0.7,1.8,2470.284,13.33,0.018,341.6
2020-04-22T03:43:03,42.805,6.029,0.001,0.037,-0.041,101.0,112.0,100.0,13.4,1505.3,324.5,-0.7,1.9,2470.327,13.33,0.037,1.5
2020-04-22T03:46:03,42.805,6.029,-0.003,0.028,-0.023,101.0,113.0,99.0,13.4,1505.3,326.5,-0.7,1.8,2470.336,13.33,0.028,353.9
2020-04-22T03:49:03,42.805,6.029,0.0,0.012,-0.04,101.0,112.0,101.0,13.4,1505.3,326.5,-0.7,1.8,2470.255,13.33,0.012,0.0
2020-04-22T03:52:03,42.805,6.029,-0.028,0.007,-0.053,103.0,111.0,101.0,13.4,1505.3,326.3,-0.7,1.8,2470.298,13.33,0.028,284.0
2020-04-22T03:55:03,42.805,6.029,0.016,0.018,-0.03,101.0,112.0,99.0,13.4,1505.3,324.8,-0.7,1.8,2470.313,13.33,0.024,41.6
2020-04-22T03:58:03,42.805,6.029,-0.023,0.025,-0.053,102.0,112.0,102.0,13.4,1505.3,325.7,-0.7,1.8,2470.279,13.33,0.033,317.4
2020-04-22T04:04:03,42.805,6.029,0.002,0.026,-0.034,103.0,114.0,101.0,13.3,1505.3,325.1,-0.7,1.8,2470.378,13.31,0.026,4.4
2020-04-22T04:07:03,42.805,6.029,0.013,-0.002,-0.049,101.0,111.0,101.0,13.4,1505.3,324.3,-0.7,1.8,2470.301,13.31,0.013,98.7
2020-04-22T04:10:03,42.805,6.029,0.017,0.016,0.031,102.0,111.0,101.0,13.4,1505.3,327.9,-0.7,1.8,2470.322,13.32,0.023,46.7
2020-04-22T04:13:03,42.805,6.029,0.031,0.023,-0.019,103.0,112.0,101.0,13.3,1505.3,325.4,-0.7,1.8,2470.309,13.32,0.038,53.4
2020-04-22T04:16:03,42.805,6.029,0.005,0.017,-0.016,103.0,113.0,102.0,13.3,1505.3,326.4,-0.7,1.8,2470.287,13.32,0.017,16.4
2020-04-22T04:19:03,42.805,6.029,0.011,0.019,-0.01,103.0,112.0,100.0,13.3,1505.3,323.6,-0.7,1.8,2470.339,13.33,0.021,30.1
2020-04-22T04:22:03,42.805,6.029,-0.003,0.026,-0.021,103.0,111.0,101.0,13.4,1505.3,325.4,-0.7,1.8,2470.356,13.33,0.026,353.4
2020-04-22T04:25:03,42.805,6.029,0.007,0.014,-0.012,104.0,111.0,102.0,13.4,1505.3,324.5,-0.7,1.8,2470.297,13.33,0.015,26.6
2020-04-22T04:28:03,42.805,6.029,0.01,0.006,-0.027,104.0,112.0,100.0,13.3,1505.3,326.1,-0.7,1.8,2470.337,13.33,0.011,59.0
2020-04-22T04:31:03,42.805,6.029,0.008,0.001,-0.021,105.0,112.0,101.0,13.4,1505.3,323.3,-0.7,1.9,2470.338,13.33,0.008,82.9
2020-04-22T04:34:03,42.805,6.029,-0.009,0.003,-0.039,105.0,112.0,101.0,13.4,1505.3,327.9,-0.7,1.8,2470.323,13.33,0.009,288.4
2020-04-22T04:37:03,42.805,6.029,-0.005,0.006,-0.039,104.0,110.0,102.0,13.4,1505.3,324.4,-0.7,1.8,2470.351,13.33,0.007,320.2
2020-04-22T04:40:03,42.805,6.029,0.006,0.021,-0.04,103.0,110.0,102.0,13.4,1505.3,323.5,-0.7,1.8,2470.363,13.33,0.021,15.9
2020-04-22T04:43:03,42.805,6.029,0.02,0.008,-0.023,103.0,111.0,102.0,13.4,1505.3,327.6,-0.7,1.8,2470.337,13.33,0.021,68.2
2020-04-22T04:46:03,42.805,6.029,0.017,0.018,-0.001,104.0,110.0,101.0,13.4,1505.3,325.1,-0.7,1.8,2470.322,13.33,0.024,43.4
2020-04-22T04:49:03,42.805,6.029,0.001,0.007,-0.012,105.0,111.0,100.0,13.4,1505.3,323.7,-0.7,1.8,2470.369,13.33,0.007,8.1
2020-04-22T04:52:03,42.805,6.029,0.001,0.031,-0.047,101.0,112.0,102.0,13.4,1505.3,326.7,-0.7,1.8,2470.334,13.33,0.031,1.8
2020-04-22T04:55:03,42.805,6.029,0.001,0.027,-0.03,103.0,110.0,102.0,13.3,1505.3,327.9,-0.7,1.8,2470.352,13.33,0.027,2.1
2020-04-22T04:58:03,42.805,6.029,0.022,0.023,0.016,104.0,113.0,102.0,13.3,1505.3,323.8,-0.7,1.8,2470.375,13.33,0.031,43.7
2020-04-22T05:04:03,42.805,6.029,0.015,0.007,-0.028,102.0,113.0,101.0,13.3,1505.3,323.6,-0.7,1.8,2470.401,13.31,0.016,65.0
2020-04-22T05:07:03,42.805,6.029,0.019,0.016,0.0,103.0,111.0,101.0,13.4,1505.3,325.5,-0.7,1.8,2470.363,13.32,0.024,49.9
2020-04-22T05:10:03,42.805,6.029,0.016,0.011,-0.044,105.0,110.0,103.0,13.3,1505.3,324.6,-0.7,1.8,2470.354,13.32,0.019,55.5
2020-04-22T05:13:03,42.805,6.029,-0.009,0.007,-0.044,103.0,111.0,101.0,13.4,1505.3,324.7,-0.8,1.8,2470.391,13.32,0.011,307.9
2020-04-22T05:16:03,42.805,6.029,-0.01,0.006,-0.045,102.0,109.0,100.0,13.3,1505.3,325.6,-0.7,1.8,2470.411,13.33,0.011,301.0
2020-04-22T05:19:03,42.805,6.029,0.001,0.002,-0.012,103.0,110.0,101.0,13.4,1505.3,325.6,-0.7,1.8,2470.369,13.33,0.002,26.6
2020-04-22T05:22:03,42.805,6.029,0.001,0.014,-0.036,104.0,110.0,102.0,13.3,1505.3,324.6,-0.7,1.8,2470.412,13.33,0.014,4.1
2020-04-22T05:25:03,42.805,6.029,0.017,0.009,-0.041,103.0,110.0,100.0,13.3,1505.3,327.4,-0.7,1.8,2470.423,13.33,0.019,62.1
2020-04-22T05:28:03,42.805,6.029,0.034,0.002,-0.032,104.0,112.0,100.0,13.3,1505.3,325.3,-0.7,1.8,2470.368,13.33,0.034,86.6
2020-04-22T05:31:03,42.805,6.029,0.02,0.018,-0.036,102.0,109.0,100.0,13.3,1505.3,325.9,-0.7,1.8,2470.441,13.33,0.026,48.0
2020-04-22T05:34:03,42.805,6.029,0.02,0.017,-0.053,103.0,110.0,102.0,13.4,1505.3,324.9,-0.7,1.8,2470.43,13.33,0.026,49.6
2020-04-22T05:37:03,42.805,6.029,0.01,0.015,-0.025,103.0,111.0,102.0,13.4,1505.3,324.2,-0.7,1.8,2470.36,13.33,0.018,33.7
2020-04-22T05:40:03,42.805,6.029,0.026,0.014,-0.004,103.0,108.0,102.0,13.4,1505.3,326.5,-0.7,1.8,2470.426,13.33,0.029,61.7
2020-04-22T05:43:03,42.805,6.029,0.001,0.025,-0.056,103.0,110.0,100.0,13.4,1505.3,324.2,-0.7,1.8,2470.436,13.33,0.025,2.3
2020-04-22T05:46:03,42.805,6.029,0.005,0.004,-0.059,105.0,111.0,101.0,13.3,1505.3,324.1,-0.7,1.9,2470.405,13.33,0.006,51.3
2020-04-22T05:49:03,42.805,6.029,0.014,0.006,-0.019,104.0,113.0,102.0,13.4,1505.3,327.3,-0.7,1.8,2470.388,13.33,0.015,66.8
2020-04-22T05:52:03,42.805,6.029,-0.009,0.013,-0.042,103.0,110.0,101.0,13.4,1505.3,323.0,-0.7,1.8,2470.401,13.33,0.015,325.3
2020-04-22T05:55:03,42.805,6.029,0.017,0.008,-0.044,105.0,108.0,100.0,13.4,1505.3,323.4,-0.7,1.8,2470.381,13.33,0.018,64.8
2020-04-22T05:58:03,42.805,6.029,0.009,0.017,-0.01,103.0,109.0,100.0,13.3,1505.3,323.9,-0.7,1.8,2470.403,13.33,0.019,27.9
2020-04-22T06:04:03,42.805,6.029,0.016,0.009,-0.015,103.0,109.0,100.0,13.4,1505.3,325.2,-0.7,1.8,2470.419,13.31,0.018,60.6
2020-04-22T06:07:03,42.805,6.029,0.021,-0.001,-0.039,103.0,109.0,101.0,13.3,1505.3,326.7,-0.7,1.8,2470.446,13.32,0.021,92.7
2020-04-22T06:10:03,42.805,6.029,-0.022,0.019,-0.072,102.0,109.0,101.0,13.4,1505.3,327.5,-0.7,1.8,2470.416,13.32,0.029,310.8
2020-04-22T06:13:03,42.805,6.029,0.025,0.03,0.014,104.0,112.0,103.0,13.4,1505.3,326.6,-0.7,1.8,2470.46,13.33,0.039,39.8
2020-04-22T06:16:03,42.805,6.029,0.009,0.021,-0.02,103.0,111.0,100.0,13.4,1505.3,324.8,-0.7,1.9,2470.441,13.33,0.022,23.2
2020-04-22T06:19:03,42.805,6.029,0.02,0.021,-0.012,105.0,110.0,103.0,13.4,1505.3,326.4,-0.7,1.8,2470.437,13.33,0.028,43.6
2020-04-22T06:22:03,42.805,6.029,0.013,-0.01,-0.044,102.0,111.0,103.0,13.4,1505.3,325.1,-0.7,1.8,2470.489,13.33,0.016,127.6
2020-04-22T06:25:03,42.805,6.029,0.021,0.0,0.011,103.0,110.0,101.0,13.4,1505.3,323.4,-0.7,1.8,2470.436,13.33,0.021,90.0
2020-04-22T06:28:03,42.805,6.029,-0.005,0.021,-0.041,104.0,108.0,101.0,13.3,1505.3,325.5,-0.7,1.8,2470.47,13.33,0.021,346.6
2020-04-22T06:31:03,42.805,6.029,0.0,-0.008,-0.032,104.0,110.0,101.0,13.3,1505.3,326.8,-0.7,1.8,2470.425,13.33,0.008,180.0
2020-04-22T06:34:03,42.805,6.029,0.002,0.013,-0.021,106.0,112.0,102.0,13.4,1505.3,324.0,-0.7,1.8,2470.435,13.33,0.013,8.7
2020-04-22T06:37:03,42.805,6.029,0.008,0.008,-0.039,105.0,111.0,101.0,13.3,1505.3,325.6,-0.7,1.8,2470.445,13.33,0.011,45.0
2020-04-22T06:40:03,42.805,6.029,0.007,0.012,-0.044,103.0,109.0,100.0,13.4,1505.3,327.2,-0.7,1.8,2470.418,13.33,0.013,30.3
2020-04-22T06:43:03,42.805,6.029,-0.007,0.0,-0.047,103.0,109.0,101.0,13.4,1505.3,323.5,-0.7,1.8,2470.43,13.33,0.007,270.0
2020-04-22T06:46:03,42.805,6.029,0.003,0.011,-0.011,103.0,107.0,102.0,13.4,1505.3,325.2,-0.7,1.8,2470.445,13.33,0.011,15.3
2020-04-22T06:49:03,42.805,6.029,0.028,0.0,-0.018,104.0,109.0,102.0,13.3,1505.3,324.1,-0.7,1.8,2470.433,13.33,0.028,90.0
2020-04-22T06:52:03,42.805,6.029,0.015,0.003,-0.038,102.0,110.0,101.0,13.3,1505.3,324.5,-0.7,1.8,2470.396,13.33,0.015,78.7
2020-04-22T06:55:03,42.805,6.029,0.009,-0.002,-0.029,103.0,110.0,102.0,13.4,1505.3,325.2,-0.7,1.8,2470.445,13.33,0.009,102.5
2020-04-22T07:04:03,42.805,6.029,0.022,0.017,-0.018,105.0,108.0,100.0,13.3,1505.2,328.4,-0.7,1.8,2470.519,13.3,0.027,52.3
2020-04-22T07:07:03,42.805,6.029,-0.02,0.001,-0.033,104.0,108.0,102.0,13.3,1505.3,323.4,-0.7,1.8,2470.445,13.31,0.02,272.9
2020-04-22T07:10:03,42.805,6.029,0.013,0.01,-0.025,103.0,110.0,101.0,13.4,1505.3,325.2,-0.7,1.8,2470.456,13.32,0.016,52.4
2020-04-22T07:13:03,42.805,6.029,0.013,0.013,-0.02,104.0,109.0,102.0,13.4,1505.3,327.5,-0.7,1.8,2470.468,13.32,0.018,45.0
2020-04-22T07:16:03,42.805,6.029,0.002,0.007,-0.021,102.0,108.0,100.0,13.4,1505.3,324.9,-0.7,1.8,2470.445,13.33,0.007,15.9
2020-04-22T07:19:03,42.805,6.029,0.013,-0.002,-0.033,104.0,107.0,100.0,13.4,1505.3,323.8,-0.7,1.8,2470.445,13.33,0.013,98.7
2020-04-22T07:22:03,42.805,6.029,0.011,0.016,-0.03,104.0,109.0,101.0,13.3,1505.3,326.8,-0.7,1.8,2470.479,13.33,0.019,34.5
2020-04-22T07:25:03,42.805,6.029,0.018,0.021,-0.026,102.0,110.0,100.0,13.3,1505.3,328.4,-0.7,1.8,2470.444,13.33,0.027,40.6
2020-04-22T07:28:03,42.805,6.029,-0.01,0.024,-0.017,103.0,109.0,101.0,13.4,1505.3,324.1,-0.7,1.9,2470.453,13.33,0.026,337.4
2020-04-22T07:31:03,42.805,6.029,-0.002,-0.003,-0.049,103.0,109.0,101.0,13.4,1505.3,324.4,-0.7,1.8,2470.448,13.33,0.003,213.7
2020-04-22T07:34:03,42.805,6.029,-0.004,0.0,-0.039,103.0,112.0,102.0,13.4,1505.3,328.5,-0.7,1.8,2470.462,13.33,0.004,270.0
2020-04-22T07:37:03,42.805,6.029,0.001,0.011,-0.016,105.0,109.0,103.0,13.4,1505.3,327.1,-0.7,1.8,2470.485,13.33,0.011,5.2
2020-04-22T07:40:03,42.805,6.029,-0.003,0.026,-0.026,103.0,109.0,101.0,13.4,1505.3,327.2,-0.7,1.8,2470.44,13.33,0.026,353.4
2020-04-22T07:43:03,42.805,6.029,0.023,0.015,-0.032,103.0,108.0,101.0,13.3,1505.3,322.7,-0.7,1.8,2470.422,13.33,0.027,56.9
2020-04-22T07:46:03,42.805,6.029,0.008,0.009,-0.031,105.0,108.0,101.0,13.4,1505.3,325.6,-0.7,1.8,2470.423,13.33,0.012,41.6
2020-04-22T07:49:03,42.805,6.029,-0.021,0.01,-0.062,102.0,109.0,102.0,13.4,1505.3,327.0,-0.7,1.8,2470.434,13.33,0.023,295.5
2020-04-22T07:52:03,42.805,6.029,-0.003,0.03,-0.055,103.0,109.0,101.0,13.4,1505.3,325.6,-0.7,1.8,2470.404,13.33,0.03,354.3
2020-04-22T07:55:03,42.805,6.029,0.007,-0.002,-0.038,102.0,110.0,102.0,13.4,1505.3,326.1,-0.7,1.8,2470.419,13.33,0.007,105.9
2020-04-22T07:58:03,42.805,6.029,0.022,0.036,0.01,103.0,109.0,102.0,13.3,1505.3,326.7,-0.7,1.8,2470.409,13.33,0.042,31.4
2020-04-22T08:04:03,42.805,6.029,0.004,0.013,-0.042,102.0,110.0,101.0,13.4,1505.3,326.3,-0.7,1.9,2470.47,13.31,0.013,17.1
2020-04-22T08:07:03,42.805,6.029,0.0,0.014,-0.062,104.0,108.0,99.0,13.3,1505.3,324.0,-0.7,1.8,2470.435,13.32,0.014,0.0
2020-04-22T08:10:03,42.805,6.029,0.019,0.012,-0.05,103.0,108.0,101.0,13.4,1505.3,325.2,-0.7,1.8,2470.451,13.32,0.022,57.7
2020-04-22T08:13:03,42.805,6.029,-0.013,0.012,-0.046,102.0,108.0,102.0,13.4,1505.3,325.6,-0.7,1.8,2470.46,13.33,0.017,312.7
2020-04-22T08:16:03,42.805,6.029,-0.012,0.021,-0.068,104.0,108.0,102.0,13.4,1505.3,325.7,-0.6,1.9,2470.439,13.33,0.024,330.3
2020-04-22T08:19:03,42.805,6.029,0.005,0.006,-0.031,102.0,109.0,101.0,13.4,1505.3,324.8,-0.7,1.8,2470.382,13.33,0.007,39.8
2020-04-22T08:22:02,42.805,6.029,0.012,0.011,-0.016,101.0,110.0,100.0,13.4,1505.3,325.1,-0.7,1.8,2470.414,13.33,0.016,47.5
2020-04-22T08:25:03,42.805,6.029,0.024,0.022,-0.011,104.0,110.0,101.0,13.3,1505.3,326.9,-0.7,1.8,2470.433,13.33,0.032,47.5
2020-04-22T08:28:03,42.805,6.029,-0.001,0.017,0.0,104.0,109.0,102.0,13.3,1505.3,323.6,-0.7,1.8,2470.446,13.33,0.017,356.6
2020-04-22T08:31:03,42.805,6.029,0.015,0.031,-0.031,101.0,108.0,101.0,13.4,1505.3,323.8,-0.7,1.8,2470.468,13.33,0.034,25.8
2020-04-22T08:34:03,42.805,6.029,0.012,0.003,-0.037,103.0,109.0,100.0,13.4,1505.3,323.0,-0.7,1.8,2470.415,13.33,0.012,76.0
2020-04-22T08:37:03,42.805,6.029,-0.015,0.001,-0.045,103.0,108.0,100.0,13.4,1505.3,327.1,-0.7,1.8,2470.392,13.33,0.015,273.8
2020-04-22T08:40:03,42.805,6.029,0.001,0.008,-0.057,101.0,108.0,101.0,13.3,1505.3,326.4,-0.7,1.8,2470.391,13.33,0.008,7.1
2020-04-22T08:43:03,42.805,6.029,0.022,0.002,-0.04,102.0,110.0,101.0,13.3,1505.3,326.3,-0.7,1.8,2470.382,13.33,0.022,84.8
2020-04-22T08:46:03,42.805,6.029,0.004,0.015,-0.048,103.0,109.0,101.0,13.3,1505.3,326.0,-0.7,1.8,2470.427,13.33,0.015,14.9
2020-04-22T08:49:03,42.805,6.029,-0.011,0.017,-0.039,103.0,111.0,100.0,13.4,1505.3,324.2,-0.7,1.8,2470.402,13.33,0.02,327.1
2020-04-22T08:52:03,42.805,6.029,0.0,0.014,-0.017,101.0,109.0,101.0,13.4,1505.3,327.4,-0.7,1.8,2470.421,13.33,0.014,0.0
2020-04-22T08:55:03,42.805,6.029,0.004,0.019,-0.033,103.0,111.0,100.0,13.4,1505.3,324.8,-0.7,1.9,2470.404,13.33,0.019,11.9
2020-04-22T08:58:03,42.805,6.029,0.009,0.017,-0.04,102.0,109.0,101.0,13.4,1505.3,323.5,-0.7,1.9,2470.378,13.33,0.019,27.9
2020-04-22T09:04:03,42.805,6.029,0.011,0.008,-0.032,102.0,107.0,101.0,13.4,1505.3,324.8,-0.7,1.8,2470.416,13.31,0.013,54.0
2020-04-22T09:07:03,42.805,6.029,0.021,-0.008,-0.045,101.0,109.0,101.0,13.3,1505.3,323.8,-0.7,1.8,2470.387,13.32,0.022,110.9
2020-04-22T09:10:03,42.805,6.029,-0.02,0.015,-0.069,102.0,110.0,102.0,13.3,1505.3,324.4,-0.7,1.8,2470.365,13.32,0.025,306.9
2020-04-22T09:13:03,42.805,6.029,0.005,0.003,-0.031,103.0,110.0,100.0,13.4,1505.3,326.1,-0.7,1.8,2470.413,13.33,0.005,59.0
2020-04-22T09:16:03,42.805,6.029,0.008,0.012,-0.048,102.0,110.0,100.0,13.4,1505.3,323.7,-0.7,1.8,2470.393,13.33,0.014,33.7
2020-04-22T09:19:03,42.805,6.029,-0.017,0.011,-0.06,102.0,110.0,100.0,13.4,1505.3,325.1,-0.7,1.8,2470.381,13.33,0.02,302.9
2020-04-22T09:22:03,42.805,6.029,0.013,0.002,-0.039,101.0,110.0,100.0,13.3,1505.3,326.1,-0.7,1.8,2470.414,13.33,0.013,81.3
2020-04-22T09:25:03,42.805,6.029,-0.011,-0.007,-0.039,102.0,109.0,103.0,13.4,1505.3,326.7,-0.7,1.8,2470.378,13.33,0.013,237.5
2020-04-22T09:28:03,42.805,6.029,0.007,0.01,-0.029,101.0,109.0,101.0,13.4,1505.3,325.0,-0.7,1.8,2470.341,13.33,0.012,35.0
2020-04-22T09:31:03,42.805,6.029,0.018,0.018,-0.022,102.0,108.0,100.0,13.4,1505.3,323.9,-0.7,1.8,2470.332,13.33,0.025,45.0
2020-04-22T09:34:03,42.805,6.029,0.011,0.009,-0.07,102.0,110.0,99.0,13.3,1505.3,324.8,-0.7,1.8,2470.366,13.33,0.014,50.7
2020-04-22T09:37:03,42.805,6.029,0.014,0.015,-0.049,103.0,110.0,100.0,13.3,1505.4,324.2,-0.7,1.8,2470.381,13.34,0.02,43.0
2020-04-22T09:40:03,42.805,6.029,-0.012,0.006,-0.059,104.0,110.0,100.0,13.4,1505.4,324.8,-0.7,1.8,2470.365,13.34,0.013,296.6
2020-04-22T09:43:03,42.805,6.029,-0.013,0.0,-0.027,101.0,111.0,101.0,13.4,1505.4,326.5,-0.7,1.8,2470.384,13.34,0.013,270.0
2020-04-22T09:46:03,42.805,6.029,-0.034,0.01,-0.056,103.0,108.0,101.0,13.3,1505.4,326.9,-0.7,1.8,2470.361,13.34,0.035,286.4
2020-04-22T09:49:03,42.805,6.029,0.021,0.011,-0.045,102.0,109.0,100.0,13.4,1505.4,326.8,-0.7,1.8,2470.368,13.34,0.023,62.4
2020-04-22T09:52:03,42.805,6.029,-0.01,0.014,-0.048,102.0,113.0,101.0,13.4,1505.4,322.9,-0.7,1.8,2470.333,13.34,0.017,324.5
2020-04-22T09:55:03,42.805,6.029,0.003,0.015,-0.035,103.0,110.0,100.0,13.3,1505.4,325.2,-0.7,1.8,2470.369,13.34,0.015,11.3
2020-04-22T09:58:03,42.805,6.029,0.015,0.026,-0.025,103.0,115.0,100.0,13.4,1505.4,325.6,-0.7,1.8,2470.336,13.34,0.03,30.0
2020-04-22T10:04:03,42.805,6.029,0.011,0.011,0.0,104.0,108.0,103.0,13.4,1505.3,327.8,-0.7,1.8,2470.425,13.32,0.015,45.0
2020-04-22T10:07:03,42.805,6.029,0.022,0.028,0.012,102.0,107.0,101.0,13.4,1505.3,328.3,-0.8,1.8,2470.344,13.33,0.035,38.2